| time (UTC) | temp F | wind direction | speed MPH | gust MPH | rain 1hr in | rain 24hr in | rain mn in | humidity % | barometer mb |
| 20260504045630 | 52 | 172 | 1.0 | 2.0 | 0.00 | 0.00 | 0.00 | 62 | 1004.0 |
| 20260504045129 | 52 | 174 | 2.0 | 2.0 | 0.00 | 0.00 | 0.00 | 62 | 1004.1 |
| 20260504044627 | 52 | 165 | 1.0 | 2.0 | 0.00 | 0.00 | 0.00 | 62 | 1004.3 |
| 20260504044124 | 52 | 247 | 3.0 | 6.0 | 0.00 | 0.00 | 0.00 | 63 | 1004.0 |
| 20260504043621 | 52 | 171 | 1.0 | 1.0 | 0.00 | 0.00 | 0.00 | 63 | 1004.1 |
| 20260504043118 | 51 | 172 | 2.0 | 2.0 | 0.00 | 0.00 | 0.00 | 63 | 1004.2 |
| 20260504042615 | 51 | 166 | 1.0 | 1.0 | 0.00 | 0.00 | 0.00 | 65 | 1004.2 |
| 20260504042112 | 51 | 159 | 2.0 | 2.0 | 0.00 | 0.00 | 0.00 | 65 | 1004.2 |
| 20260504041608 | 51 | 153 | 1.0 | 2.0 | 0.00 | 0.00 | 0.00 | 66 | 1004.4 |
| 20260504041104 | 51 | 155 | 1.0 | 1.0 | 0.00 | 0.00 | 0.00 | 66 | 1004.4 |
| 20260504040602 | 51 | 158 | 0.0 | 0.0 | 0.00 | 0.00 | 0.00 | 66 | 1004.5 |
| 20260504040058 | 51 | 158 | 0.0 | 1.0 | 0.00 | 0.00 | 0.00 | 66 | 1004.4 |
| 20260504035555 | 51 | 163 | 3.0 | 3.0 | 0.00 | 0.00 | 0.00 | 66 | 1004.5 |
| 20260504035051 | 52 | 166 | 1.0 | 2.0 | 0.00 | 0.00 | 0.00 | 65 | 1004.6 |
| 20260504034549 | 52 | 164 | 1.0 | 1.0 | 0.00 | 0.00 | 0.00 | 65 | 1004.7 |
| 20260504034046 | 52 | 162 | 2.0 | 2.0 | 0.00 | 0.00 | 0.00 | 64 | 1004.8 |
| 20260504033544 | 52 | 151 | 0.0 | 1.0 | 0.00 | 0.00 | 0.00 | 63 | 1004.7 |
| 20260504033041 | 53 | 151 | 0.0 | 1.0 | 0.00 | 0.00 | 0.00 | 63 | 1004.7 |
| 20260504032538 | 53 | 135 | 0.0 | 1.0 | 0.00 | 0.00 | 0.00 | 63 | 1004.8 |
| 20260504032035 | 53 | 164 | 2.0 | 2.0 | 0.00 | 0.00 | 0.00 | 63 | 1004.8 |
| 20260504031532 | 53 | 159 | 2.0 | 2.0 | 0.00 | 0.00 | 0.00 | 62 | 1004.9 |
| 20260504031028 | 53 | 171 | 2.0 | 2.0 | 0.00 | 0.00 | 0.00 | 62 | 1005.1 |
| 20260504030526 | 53 | 165 | 2.0 | 2.0 | 0.00 | 0.00 | 0.00 | 62 | 1005.1 |
| 20260504030021 | 53 | 161 | 1.0 | 1.0 | 0.00 | 0.00 | 0.00 | 62 | 1005.0 |
| 20260504025519 | 53 | 181 | 2.0 | 2.0 | 0.00 | 0.00 | 0.00 | 61 | 1005.1 |
| 20260504025015 | 53 | 163 | 1.0 | 1.0 | 0.00 | 0.00 | 0.00 | 62 | 1005.3 |
| 20260504024512 | 53 | 173 | 2.0 | 2.0 | 0.00 | 0.00 | 0.00 | 61 | 1005.3 |
| 20260504024009 | 53 | 168 | 2.0 | 3.0 | 0.00 | 0.00 | 0.00 | 61 | 1005.2 |
| 20260504023506 | 53 | 158 | 1.0 | 2.0 | 0.00 | 0.00 | 0.00 | 62 | 1005.4 |
| 20260504023002 | 53 | 150 | 2.0 | 2.0 | 0.00 | 0.00 | 0.00 | 61 | 1005.3 |
| 20260504022458 | 53 | 163 | 1.0 | 1.0 | 0.00 | 0.00 | 0.00 | 60 | 1005.3 |
| 20260504021954 | 53 | 167 | 1.0 | 1.0 | 0.00 | 0.00 | 0.00 | 59 | 1005.4 |
| 20260504021452 | 53 | 159 | 1.0 | 2.0 | 0.00 | 0.00 | 0.00 | 60 | 1005.3 |
| 20260504020949 | 53 | 154 | 1.0 | 2.0 | 0.00 | 0.00 | 0.00 | 60 | 1005.3 |
| 20260504020445 | 53 | 166 | 2.0 | 2.0 | 0.00 | 0.00 | 0.00 | 59 | 1005.3 |
| 20260504015942 | 53 | 162 | 1.0 | 1.0 | 0.00 | 0.00 | 0.00 | 60 | 1005.5 |
| 20260504015438 | 53 | 176 | 1.0 | 2.0 | 0.00 | 0.00 | 0.00 | 60 | 1005.7 |
| 20260504014934 | 53 | 169 | 1.0 | 2.0 | 0.00 | 0.00 | 0.00 | 61 | 1005.5 |
| 20260504014431 | 53 | 154 | 4.0 | 7.0 | 0.00 | 0.00 | 0.00 | 60 | 1005.5 |
| 20260504013927 | 53 | 231 | 4.0 | 4.0 | 0.00 | 0.00 | 0.00 | 60 | 1005.5 |
| 20260504013427 | 53 | 189 | 2.0 | 2.0 | 0.00 | 0.00 | 0.00 | 59 | 1005.5 |
| 20260504012926 | 54 | 162 | 1.0 | 1.0 | 0.00 | 0.00 | 0.00 | 59 | 1005.5 |
| 20260504012425 | 54 | 200 | 2.0 | 2.0 | 0.00 | 0.00 | 0.00 | 59 | 1005.5 |
| 20260504011922 | 54 | 174 | 2.0 | 2.0 | 0.00 | 0.00 | 0.00 | 59 | 1005.4 |
| 20260504011419 | 54 | 164 | 1.0 | 1.0 | 0.00 | 0.00 | 0.00 | 59 | 1005.3 |
| 20260504010914 | 55 | 159 | 2.0 | 2.0 | 0.00 | 0.00 | 0.00 | 58 | 1005.5 |
| 20260504010411 | 55 | 161 | 2.0 | 3.0 | 0.00 | 0.00 | 0.00 | 57 | 1005.4 |
| 20260504005907 | 55 | 163 | 1.0 | 2.0 | 0.00 | 0.00 | 0.00 | 55 | 1005.3 |
| 20260504005403 | 56 | 197 | 4.0 | 4.0 | 0.00 | 0.00 | 0.00 | 53 | 1005.2 |
| 20260504004901 | 56 | 141 | 1.0 | 1.0 | 0.00 | 0.00 | 0.00 | 48 | 1005.2 |
| 20260504004359 | 56 | 144 | 1.0 | 1.0 | 0.00 | 0.00 | 0.00 | 45 | 1005.2 |
| 20260504003855 | 57 | 187 | 1.0 | 1.0 | 0.00 | 0.00 | 0.00 | 44 | 1004.7 |
| 20260504003352 | 57 | 177 | 2.0 | 3.0 | 0.00 | 0.00 | 0.00 | 43 | 1004.9 |
| 20260504002849 | 57 | 168 | 3.0 | 4.0 | 0.00 | 0.00 | 0.00 | 42 | 1004.8 |
| 20260504002345 | 58 | 166 | 3.0 | 4.0 | 0.00 | 0.00 | 0.00 | 41 | 1004.8 |
| 20260504001843 | 58 | 166 | 2.0 | 3.0 | 0.00 | 0.00 | 0.00 | 42 | 1004.8 |
| 20260504001340 | 58 | 289 | 3.0 | 4.0 | 0.00 | 0.00 | 0.00 | 41 | 1004.9 |
| 20260504000837 | 58 | 154 | 2.0 | 3.0 | 0.00 | 0.00 | 0.00 | 41 | 1005.0 |
| 20260504000334 | 58 | 160 | 3.0 | 3.0 | 0.00 | 0.00 | 0.00 | 41 | 1004.7 |
| 20260503235832 | 58 | 187 | 3.0 | 4.0 | 0.00 | 0.00 | 0.00 | 42 | 1004.8 |
| 20260503235329 | 59 | 149 | 2.0 | 2.0 | 0.00 | 0.00 | 0.00 | 42 | 1004.7 |
| 20260503234826 | 59 | 153 | 3.0 | 4.0 | 0.00 | 0.00 | 0.00 | 41 | 1004.7 |
| 20260503234324 | 59 | 202 | 2.0 | 2.0 | 0.00 | 0.00 | 0.00 | 40 | 1004.7 |
| 20260503233822 | 59 | 177 | 2.0 | 3.0 | 0.00 | 0.00 | 0.00 | 39 | 1004.8 |
| 20260503233317 | 59 | 172 | 4.0 | 6.0 | 0.00 | 0.00 | 0.00 | 39 | 1004.9 |
| 20260503232814 | 60 | 153 | 4.0 | 6.0 | 0.00 | 0.00 | 0.00 | 39 | 1004.9 |
| 20260503232312 | 60 | 175 | 2.0 | 3.0 | 0.00 | 0.00 | 0.00 | 39 | 1004.9 |
| 20260503231809 | 60 | 155 | 4.0 | 6.0 | 0.00 | 0.00 | 0.00 | 40 | 1005.0 |
| 20260503231306 | 60 | 205 | 2.0 | 3.0 | 0.00 | 0.00 | 0.00 | 40 | 1004.8 |
| 20260503230802 | 61 | 211 | 2.0 | 3.0 | 0.00 | 0.00 | 0.00 | 38 | 1004.9 |
| 20260503230259 | 61 | 178 | 3.0 | 6.0 | 0.00 | 0.00 | 0.00 | 40 | 1005.0 |
| 20260503225757 | 60 | 134 | 2.0 | 3.0 | 0.00 | 0.00 | 0.00 | 39 | 1005.0 |
| 20260503225252 | 60 | 170 | 4.0 | 4.0 | 0.00 | 0.00 | 0.00 | 39 | 1005.2 |
| 20260503224749 | 60 | 159 | 2.0 | 2.0 | 0.00 | 0.00 | 0.00 | 39 | 1005.0 |
| 20260503224247 | 60 | 169 | 4.0 | 6.0 | 0.00 | 0.00 | 0.00 | 38 | 1005.1 |
| 20260503223744 | 60 | 181 | 3.0 | 4.0 | 0.00 | 0.00 | 0.00 | 38 | 1004.9 |
| 20260503223241 | 60 | 168 | 3.0 | 4.0 | 0.00 | 0.00 | 0.00 | 40 | 1005.2 |
| 20260503222737 | 60 | 160 | 3.0 | 4.0 | 0.00 | 0.00 | 0.00 | 40 | 1005.1 |
| 20260503222235 | 61 | 189 | 2.0 | 3.0 | 0.00 | 0.00 | 0.00 | 40 | 1004.9 |
| 20260503221734 | 60 | 168 | 3.0 | 3.0 | 0.00 | 0.00 | 0.00 | 38 | 1005.0 |
| 20260503221231 | 61 | 141 | 2.0 | 3.0 | 0.00 | 0.00 | 0.00 | 39 | 1005.2 |
| 20260503220727 | 61 | 154 | 2.0 | 2.0 | 0.00 | 0.00 | 0.00 | 39 | 1005.1 |
| 20260503220224 | 61 | 179 | 3.0 | 4.0 | 0.00 | 0.00 | 0.00 | 39 | 1005.1 |
| 20260503215721 | 61 | 179 | 2.0 | 2.0 | 0.00 | 0.00 | 0.00 | 39 | 1005.2 |
| 20260503215218 | 61 | 243 | 3.0 | 4.0 | 0.00 | 0.00 | 0.00 | 39 | 1005.2 |
| 20260503214716 | 62 | 199 | 4.0 | 4.0 | 0.00 | 0.00 | 0.00 | 37 | 1005.2 |
| 20260503214212 | 61 | 149 | 3.0 | 3.0 | 0.00 | 0.00 | 0.00 | 39 | 1005.0 |
| 20260503213711 | 62 | 193 | 5.0 | 7.0 | 0.00 | 0.00 | 0.00 | 37 | 1005.2 |
| 20260503213208 | 62 | 240 | 3.0 | 3.0 | 0.00 | 0.00 | 0.00 | 39 | 1005.1 |
| 20260503212705 | 62 | 230 | 2.0 | 2.0 | 0.00 | 0.00 | 0.00 | 39 | 1005.3 |
| 20260503212202 | 62 | 220 | 7.0 | 10.0 | 0.00 | 0.00 | 0.00 | 37 | 1005.0 |
| 20260503211700 | 62 | 176 | 2.0 | 3.0 | 0.00 | 0.00 | 0.00 | 39 | 1005.2 |
| 20260503211155 | 61 | 168 | 3.0 | 4.0 | 0.00 | 0.00 | 0.00 | 40 | 1005.2 |
| 20260503210652 | 62 | 239 | 5.0 | 7.0 | 0.00 | 0.00 | 0.00 | 39 | 1005.4 |
| 20260503210148 | 61 | 159 | 3.0 | 6.0 | 0.00 | 0.00 | 0.00 | 39 | 1005.2 |
| 20260503205644 | 61 | 130 | 3.0 | 4.0 | 0.00 | 0.00 | 0.00 | 39 | 1005.4 |
| 20260503205140 | 62 | 190 | 4.0 | 4.0 | 0.00 | 0.00 | 0.00 | 40 | 1005.4 |
| 20260503204637 | 61 | 248 | 4.0 | 4.0 | 0.00 | 0.00 | 0.00 | 40 | 1005.4 |
| 20260503204135 | 61 | 149 | 3.0 | 6.0 | 0.00 | 0.00 | 0.00 | 41 | 1005.4 |
| 20260503203631 | 61 | 161 | 4.0 | 6.0 | 0.00 | 0.00 | 0.00 | 40 | 1005.3 |
| 20260503203129 | 61 | 164 | 4.0 | 6.0 | 0.00 | 0.00 | 0.00 | 41 | 1005.2 |
| 20260503202626 | 61 | 202 | 2.0 | 2.0 | 0.00 | 0.00 | 0.00 | 42 | 1005.3 |
| 20260503202124 | 61 | 175 | 4.0 | 6.0 | 0.00 | 0.00 | 0.00 | 40 | 1005.5 |
| 20260503201622 | 62 | 164 | 4.0 | 6.0 | 0.00 | 0.00 | 0.00 | 37 | 1005.5 |
| 20260503201119 | 63 | 133 | 3.0 | 4.0 | 0.00 | 0.00 | 0.00 | 39 | 1005.7 |
| 20260503200615 | 62 | 202 | 3.0 | 4.0 | 0.00 | 0.00 | 0.00 | 36 | 1005.8 |
| 20260503200112 | 63 | 157 | 4.0 | 6.0 | 0.00 | 0.00 | 0.00 | 38 | 1005.8 |
| 20260503195609 | 63 | 189 | 3.0 | 4.0 | 0.00 | 0.00 | 0.00 | 39 | 1005.7 |
| 20260503195106 | 63 | 265 | 3.0 | 6.0 | 0.00 | 0.00 | 0.00 | 40 | 1005.9 |
| 20260503194603 | 62 | 186 | 2.0 | 2.0 | 0.00 | 0.00 | 0.00 | 41 | 1005.8 |
| 20260503194058 | 62 | 234 | 7.0 | 9.0 | 0.00 | 0.00 | 0.00 | 37 | 1006.1 |
| 20260503193555 | 62 | 134 | 7.0 | 11.0 | 0.00 | 0.00 | 0.00 | 38 | 1006.1 |
| 20260503193050 | 63 | 253 | 7.0 | 10.0 | 0.00 | 0.00 | 0.00 | 37 | 1006.2 |
| 20260503192547 | 63 | 115 | 4.0 | 6.0 | 0.00 | 0.00 | 0.00 | 40 | 1006.2 |
| 20260503192043 | 61 | 169 | 2.0 | 2.0 | 0.00 | 0.00 | 0.00 | 40 | 1006.2 |
| 20260503191539 | 62 | 186 | 3.0 | 3.0 | 0.00 | 0.00 | 0.00 | 41 | 1006.5 |
| 20260503191036 | 62 | 231 | 5.0 | 7.0 | 0.00 | 0.00 | 0.00 | 40 | 1006.4 |
| 20260503190533 | 62 | 148 | 4.0 | 6.0 | 0.00 | 0.00 | 0.00 | 39 | 1006.7 |
| 20260503190031 | 63 | 166 | 3.0 | 4.0 | 0.00 | 0.00 | 0.00 | 37 | 1006.6 |
| 20260503185527 | 63 | 155 | 3.0 | 4.0 | 0.00 | 0.00 | 0.00 | 40 | 1006.7 |
| 20260503185026 | 63 | 83 | 3.0 | 3.0 | 0.00 | 0.00 | 0.00 | 40 | 1006.7 |
| 20260503184523 | 61 | 179 | 3.0 | 4.0 | 0.00 | 0.00 | 0.00 | 40 | 1006.9 |
| 20260503184020 | 62 | 149 | 2.0 | 2.0 | 0.00 | 0.00 | 0.00 | 41 | 1006.8 |
| 20260503183516 | 62 | 176 | 5.0 | 7.0 | 0.00 | 0.00 | 0.00 | 38 | 1006.7 |
| 20260503183013 | 62 | 150 | 0.0 | 1.0 | 0.00 | 0.00 | 0.00 | 40 | 1006.8 |
| 20260503182512 | 61 | 188 | 3.0 | 4.0 | 0.00 | 0.00 | 0.00 | 41 | 1006.8 |
| 20260503182009 | 63 | 310 | 8.0 | 10.0 | 0.00 | 0.00 | 0.00 | 38 | 1007.0 |
| 20260503181506 | 62 | 162 | 5.0 | 6.0 | 0.00 | 0.00 | 0.00 | 38 | 1006.8 |
| 20260503181002 | 62 | 38 | 2.0 | 2.0 | 0.00 | 0.00 | 0.00 | 40 | 1007.0 |
| 20260503180500 | 62 | 179 | 2.0 | 3.0 | 0.00 | 0.00 | 0.00 | 40 | 1007.2 |
| 20260503175956 | 62 | 135 | 3.0 | 4.0 | 0.00 | 0.00 | 0.00 | 42 | 1007.2 |
| 20260503175455 | 62 | 149 | 4.0 | 6.0 | 0.00 | 0.00 | 0.00 | 38 | 1007.2 |
| 20260503174950 | 63 | 202 | 3.0 | 4.0 | 0.00 | 0.00 | 0.00 | 40 | 1007.2 |
| 20260503174449 | 61 | 146 | 2.0 | 2.0 | 0.00 | 0.00 | 0.00 | 44 | 1007.4 |
| 20260503173944 | 61 | 190 | 4.0 | 4.0 | 0.00 | 0.00 | 0.00 | 41 | 1007.4 |
| 20260503173440 | 61 | 151 | 2.0 | 3.0 | 0.00 | 0.00 | 0.00 | 45 | 1007.4 |
| 20260503172937 | 60 | 185 | 2.0 | 3.0 | 0.00 | 0.00 | 0.00 | 43 | 1007.6 |
| 20260503172434 | 61 | 175 | 1.0 | 1.0 | 0.00 | 0.00 | 0.00 | 44 | 1007.7 |
| 20260503171930 | 61 | 192 | 2.0 | 2.0 | 0.00 | 0.00 | 0.00 | 43 | 1007.7 |
| 20260503171427 | 60 | 153 | 1.0 | 1.0 | 0.00 | 0.00 | 0.00 | 45 | 1007.9 |
| 20260503170925 | 61 | 164 | 2.0 | 3.0 | 0.00 | 0.00 | 0.00 | 44 | 1007.9 |
| 20260503170421 | 60 | 276 | 4.0 | 8.0 | 0.00 | 0.00 | 0.00 | 43 | 1007.9 |
| 20260503150813 | 55 | 145 | 1.0 | 1.0 | 0.00 | 0.00 | 0.00 | 47 | 1008.8 |
| 20260503150309 | 55 | 170 | 3.0 | 7.0 | 0.00 | 0.00 | 0.00 | 46 | 1009.1 |
| 20260503140234 | 52 | 196 | 2.0 | 2.0 | 0.00 | 0.00 | 0.00 | 47 | 1008.9 |
| 20260503131203 | 48 | 188 | 2.0 | 2.0 | 0.00 | 0.00 | 0.00 | 55 | 1009.6 |
| 20260503130700 | 47 | 163 | 2.0 | 2.0 | 0.00 | 0.00 | 0.00 | 53 | 1009.6 |
| 20260503130158 | 47 | 185 | 3.0 | 4.0 | 0.00 | 0.00 | 0.00 | 54 | 1009.7 |
| 20260503120124 | 42 | 178 | 1.0 | 2.0 | 0.00 | 0.00 | 0.00 | 60 | 1009.6 |
| 20260503110550 | 38 | 163 | 0.0 | 0.0 | 0.00 | 0.00 | 0.00 | 73 | 1009.6 |
| 20260503090438 | 38 | 164 | 0.0 | 0.0 | 0.00 | 0.00 | 0.00 | 75 | 1009.2 |
| 20260503081404 | 38 | 160 | 0.0 | 0.0 | 0.00 | 0.00 | 0.00 | 76 | 1009.4 |
| 20260503080901 | 38 | 167 | 0.0 | 0.0 | 0.00 | 0.00 | 0.00 | 75 | 1009.4 |
| 20260503080358 | 38 | 155 | 0.0 | 0.0 | 0.00 | 0.00 | 0.00 | 76 | 1009.4 |
| 20260503072834 | 39 | 153 | 1.0 | 1.0 | 0.00 | 0.00 | 0.00 | 74 | 1009.4 |
| 20260503072331 | 39 | 153 | 0.0 | 0.0 | 0.00 | 0.00 | 0.00 | 75 | 1009.4 |
| 20260503071827 | 39 | 153 | 1.0 | 1.0 | 0.00 | 0.00 | 0.00 | 76 | 1009.3 |
| 20260503071325 | 39 | 161 | 0.0 | 1.0 | 0.00 | 0.00 | 0.00 | 77 | 1009.3 |
| 20260503070821 | 39 | 156 | 0.0 | 0.0 | 0.00 | 0.00 | 0.00 | 76 | 1009.3 |
| 20260503070319 | 39 | 153 | 0.0 | 0.0 | 0.00 | 0.00 | 0.00 | 76 | 1009.4 |
| 20260503060244 | 39 | 146 | 0.0 | 0.0 | 0.00 | 0.00 | 0.00 | 82 | 1009.8 |
| 20260503054731 | 39 | 156 | 0.0 | 0.0 | 0.00 | 0.00 | 0.00 | 82 | 1009.7 |
| 20260503054228 | 39 | 154 | 0.0 | 0.0 | 0.00 | 0.00 | 0.00 | 82 | 1010.0 |
| 20260503053726 | 39 | 159 | 0.0 | 0.0 | 0.00 | 0.00 | 0.00 | 82 | 1009.7 |
| 20260503053225 | 39 | 162 | 0.0 | 0.0 | 0.00 | 0.00 | 0.00 | 82 | 1009.6 |
| 20260503052720 | 39 | 161 | 0.0 | 0.0 | 0.00 | 0.00 | 0.00 | 82 | 1009.6 |
| 20260503052217 | 39 | 161 | 0.0 | 0.0 | 0.00 | 0.00 | 0.00 | 82 | 1009.9 |
| 20260503051712 | 39 | 157 | 0.0 | 0.0 | 0.00 | 0.00 | 0.00 | 82 | 1009.5 |
| 20260503051210 | 39 | 161 | 0.0 | 0.0 | 0.00 | 0.00 | 0.00 | 82 | 1010.0 |
| 20260503050707 | 39 | 152 | 0.0 | 0.0 | 0.00 | 0.00 | 0.00 | 81 | 1010.0 |
| 20260503050203 | 39 | 169 | 1.0 | 1.0 | 0.00 | 0.00 | 0.00 | 81 | 1009.7 |